AG4OX Weather Reports


time (UTC)temp
C
wind
direction
speed
KPH
gust
KPH
rain 1hr
cm
rain 24hr
cm
rain mn
cm
humidity
%
barometer
mb
20260901150006 29 71 1.6 8.0 0.00 0.51 0.00 76 1015.2
20260901145005 29 43 3.2 8.0 0.00 0.51 0.00 77 1015.2
20260901144006 29 346 3.2 8.0 0.00 0.51 0.00 76 1015.1
20260901143005 29 352 3.2 4.8 0.00 0.51 0.00 78 1015.2
20260901142005 29 15 1.6 4.8 0.00 0.51 0.00 79 1015.1
20260901141006 30 37 1.6 8.0 0.00 0.51 0.00 77 1014.9
20260901140006 30 109 1.6 4.8 0.00 0.51 0.00 77 1014.9
20260901135005 30 71 1.6 4.8 0.00 0.51 0.00 78 1014.9
20260901134005 30 28 3.2 4.8 0.00 0.51 0.00 77 1014.8
20260901133007 30 347 1.6 4.8 0.00 0.51 0.00 79 1014.7
20260901132006 29 333 1.6 4.8 0.00 0.51 0.00 81 1014.7
20260901131006 29 346 3.2 4.8 0.00 0.51 0.00 81 1014.7
20260901130006 28 55 1.6 4.8 0.00 0.51 0.00 82 1014.7
20260901125006 27 14 1.6 4.8 0.00 0.51 0.00 79 1014.7
20260901124006 26 5 1.6 3.2 0.00 0.51 0.00 72 1014.6
20260901122005 25 317 1.6 3.2 0.00 0.51 0.00 65 1014.5
20260901121007 25 18 0.0 3.2 0.00 0.51 0.00 65 1014.4
20260901120004 25 340 1.6 3.2 0.00 0.51 0.00 65 1014.2
20260901113005 23 318 1.6 3.2 0.00 0.51 0.00 66 1013.8
20260901112006 23 318 0.0 1.6 0.00 0.51 0.00 66 1013.8
20260901111005 23 336 0.0 0.0 0.00 0.51 0.00 66 1013.7
20260901110005 23 336 0.0 1.6 0.00 0.51 0.00 66 1013.5
20260901104005 23 200 1.6 3.2 0.00 0.51 0.00 66 1013.5
20260901102007 23 200 0.0 1.6 0.00 0.51 0.00 67 1013.2
20260901101005 23 200 0.0 1.6 0.00 0.51 0.00 66 1013.2
20260901100005 23 200 0.0 1.6 0.00 0.51 0.00 67 1013.1
20260901095007 23 200 0.0 0.0 0.00 0.51 0.00 67 1013.3
20260901092005 24 200 0.0 1.6 0.00 0.51 0.00 67 1013.3
20260901090004 24 200 0.0 1.6 0.00 0.51 0.00 67 1013.3
20260901085007 24 200 0.0 0.0 0.00 0.51 0.00 67 1013.1
20260901084005 24 200 0.0 1.6 0.00 0.51 0.00 67 1013.4
20260901082006 24 200 0.0 1.6 0.00 0.51 0.00 68 1013.1
20260901081005 24 200 0.0 1.6 0.00 0.51 0.00 68 1013.2
20260901080004 24 200 0.0 1.6 0.00 0.51 0.00 67 1013.3
20260901075005 24 200 0.0 1.6 0.00 0.51 0.00 67 1013.3
20260901074007 25 200 1.6 3.2 0.00 0.51 0.00 67 1013.2
20260901071005 25 284 0.0 3.2 0.00 0.51 0.00 67 1013.6
20260901070004 25 288 0.0 1.6 0.00 0.51 0.00 67 1013.8
20260901064005 25 234 1.6 4.8 0.00 0.51 0.00 67 1014.0
20260901063006 25 290 0.0 3.2 0.00 0.51 0.00 67 1014.1
20260901062005 25 165 0.0 1.6 0.00 0.51 0.00 68 1014.3
20260901061006 25 165 1.6 4.8 0.00 0.51 0.00 68 1014.3
20260901060004 25 300 0.0 3.2 0.00 0.51 0.00 67 1014.1
20260901055005 25 299 1.6 3.2 0.00 0.51 0.00 67 1014.4
20260901054006 25 272 1.6 3.2 0.00 0.51 0.00 67 1014.6
20260901053006 25 277 0.0 0.0 0.00 0.51 0.00 67 1014.7
20260901052005 25 277 0.0 1.6 0.00 0.51 0.00 67 1014.9
20260901051005 25 277 0.0 1.6 0.00 0.51 0.00 67 1014.9
20260901050004 25 277 0.0 1.6 0.00 0.51 0.00 68 1015.0
20260901045005 25 277 0.0 1.6 0.00 0.51 0.00 68 1015.0
20260901044005 25 163 0.0 1.6 0.00 0.51 0.00 68 1015.0
20260901043005 25 147 0.0 0.0 0.00 0.51 0.00 69 1015.0
20260901042005 25 147 0.0 1.6 0.00 0.51 0.00 69 1015.0
20260901041011 25 148 0.0 1.6 0.00 0.51 0.00 69 1014.9
20260901040005 25 148 0.0 0.0 0.00 0.51 0.00 69 1014.8
20260901035005 25 148 0.0 1.6 0.00 0.51 0.51 69 1014.9
20260901033007 25 148 0.0 1.6 0.00 0.51 0.51 70 1014.9
20260901032005 25 148 0.0 1.6 0.00 0.51 0.51 70 1014.9
20260901030005 25 148 0.0 0.0 0.00 0.51 0.51 70 1015.0
20260901025006 25 148 0.0 0.0 0.00 0.51 0.51 71 1015.3
20260901024006 25 148 0.0 0.0 0.00 0.51 0.51 70 1015.3
20260901023005 25 148 0.0 0.0 0.00 0.51 0.51 72 1015.2
20260901022006 25 148 0.0 0.0 0.00 0.51 0.51 74 1015.0
20260901021005 25 148 0.0 0.0 0.00 0.51 0.51 74 1014.9
20260901020006 25 148 0.0 0.0 0.00 0.51 0.51 74 1014.9
20260901015005 25 148 0.0 0.0 0.00 0.51 0.51 73 1014.7
20260901014007 25 148 0.0 1.6 0.00 0.51 0.51 72 1014.6
20260901013006 25 83 0.0 0.0 0.00 0.51 0.51 75 1014.6
20260901012007 25 83 0.0 1.6 0.00 0.51 0.51 76 1014.5
20260901011006 25 83 0.0 1.6 0.00 0.51 0.51 76 1014.5
20260901010005 25 83 0.0 1.6 0.00 0.51 0.51 76 1014.4
20260901005006 26 83 0.0 1.6 0.00 0.51 0.51 76 1014.3
20260901004005 26 83 0.0 0.0 0.00 0.51 0.51 76 1014.3
20260901003005 26 83 0.0 1.6 0.00 0.51 0.51 76 1014.2
20260901002005 26 92 0.0 0.0 0.00 0.51 0.51 75 1014.2
20260901001005 26 92 1.6 3.2 0.00 0.51 0.51 74 1014.1
20260901000005 26 304 0.0 0.0 0.00 0.51 0.51 76 1014.2
20260831235005 26 304 0.0 1.6 0.00 0.51 0.51 76 1014.1
20260831234005 26 304 1.6 3.2 0.00 0.51 0.51 76 1014.0
20260831233007 26 304 1.6 3.2 0.00 0.51 0.51 77 1014.0
20260831232005 26 295 1.6 4.8 0.00 0.51 0.51 78 1014.1
20260831231005 26 290 1.6 3.2 0.00 0.51 0.51 79 1014.1
20260831230005 26 331 1.6 1.6 0.00 0.51 0.51 79 1014.0
20260831225005 26 331 0.0 3.2 0.00 0.51 0.51 80 1014.0
20260831224005 26 355 0.0 3.2 0.00 0.51 0.51 80 1013.9
20260831223006 26 5 1.6 4.8 0.00 0.51 0.51 80 1013.9
20260831221007 26 18 0.0 3.2 0.00 0.51 0.51 80 1014.1
20260831220005 25 53 0.0 3.2 0.00 0.51 0.51 80 1014.2
20260831215005 25 50 1.6 3.2 0.00 0.51 0.51 81 1014.2
20260831214005 25 355 1.6 4.8 0.00 0.51 0.51 81 1014.2
20260831213005 25 337 1.6 4.8 0.03 0.51 0.51 81 1014.2
20260831212006 25 266 1.6 4.8 0.03 0.51 0.51 79 1014.1
20260831211005 25 355 1.6 8.0 0.03 0.51 0.51 79 1014.1
20260831210005 25 340 3.2 4.8 0.03 0.51 0.51 78 1014.2
20260831205006 25 336 3.2 8.0 0.03 0.51 0.51 80 1014.5
20260831204005 25 325 4.8 16.1 0.03 0.51 0.51 81 1014.7
20260831202006 26 322 8.0 16.1 0.00 0.48 0.48 83 1014.9
20260831201005 26 281 8.0 19.3 0.00 0.48 0.48 83 1014.9
20260831195006 26 279 3.2 4.8 0.00 0.48 0.48 83 1014.9
20260831194006 26 259 1.6 4.8 0.00 0.48 0.48 83 1015.0
20260831192006 26 286 1.6 4.8 0.00 0.48 0.48 83 1015.1
20260831191006 26 268 3.2 9.7 0.00 0.48 0.48 83 1015.1
20260831190006 27 287 8.0 16.1 0.00 0.48 0.48 83 1015.2
20260831185005 27 351 1.6 3.2 0.00 0.48 0.48 82 1015.0
20260831184005 27 74 0.0 4.8 0.00 0.48 0.48 82 1014.9
20260831183006 27 74 0.0 4.8 0.00 0.48 0.48 82 1014.8
20260831181007 27 218 3.2 8.0 0.00 0.48 0.48 82 1015.0
20260831175005 28 194 0.0 3.2 0.00 0.48 0.48 82 1015.1
20260831174007 28 148 0.0 3.2 0.00 0.48 0.48 82 1015.1
20260831173006 28 219 0.0 4.8 0.00 0.48 0.48 82 1015.2
20260831172005 28 269 0.0 4.8 0.00 0.51 0.48 82 1015.1
20260831171006 28 304 1.6 9.7 0.03 0.51 0.48 82 1015.2
20260831170005 27 253 4.8 9.7 0.10 0.53 0.48 82 1015.3
20260831165006 27 243 3.2 4.8 0.13 0.58 0.48 81 1015.4
20260831164005 26 295 1.6 4.8 0.23 0.64 0.48 80 1015.3
20260831163005 25 258 0.0 8.0 0.48 0.71 0.48 76 1015.5
20260831161007 25 241 8.0 9.7 0.46 0.69 0.46 81 1015.7
20260831155005 25 236 4.8 9.7 0.36 0.58 0.36 83 1016.2
20260831154005 27 333 8.0 16.1 0.25 0.48 0.25 78 1016.1
20260831152006 31 3 3.2 4.8 0.00 0.23 0.00 73 1015.9
20260831151006 31 12 1.6 9.7 0.00 0.23 0.00 72 1015.8